Location: Hannover
(52.3723°N, 9.7339°E)
Time: 18:22:52
(UTC+02:00)

ISS - Pass Details

Date: 07 January 2018
Orbit: 401 x 409 km, 51.6° (Epoch: 22 August)

Event Time Altitude Azimuth Distance (km) Brightness Sun altitude
Exits shadow 07:26:58 11° 274° (W) 1,447 -1.6 -9.0°
Maximum altitude 07:30:05 47° 201° (SSW) 572 -3.0 -8.5°
Drops below altitude 10° 07:33:23 10° 126° (SE) 1,516 0.7 -8.1°
Sets 07:35:31 0° 120° (ESE) 2,382 2.6 -7.8°
